Regional Weather Roundup
Issued by NWS

Home | Current Version | Previous Version | Graphics & Text | Print | Product List | Glossary On
Versions: 1 2 3 4 5 6 7 8 9 10 11 12 13 14 15 16 17 18 19 20 21 22 23 24 25 26 27 28 29 30 31 32 33 34 35 36 37 38 39 40 41 42 43 44 45 46 47 48 49 50
000
ASUS45 KABQ 021701
RWRNM
WEATHER ROUNDUP FOR NEW MEXICO
NATIONAL WEATHER SERVICE ALBUQUERQUE NM
1100 AM MDT TUE SEP 02 2014

NOTE: "FAIR" MEANS FEW OR NO CLOUDS BELOW 12,000 FEET AGL WITH NO
       SIGNIFICANT WEATHER OR OBSTRUCTIONS TO VISION.

      THIS PRODUCT IS RELEASED AS TWO VERSIONS.  ONE VERSION NEAR
      THE TOP OF THE HOUR CONTAINING PRELIMINARY DATA FROM ALBUQUERQUE
      AND OTHER STATIONS.  A FINAL VERSION WITH ADDITIONAL DATA IS
      ISSUED ABOUT 10 MINUTES AFTER THE HOUR.

NMZ501-503-504-510>518-021800-
NORTHWEST PLATEAU/NORTHCENTRAL MOUNTAINS

CITY           SKY/WX    TMP DP  RH WIND       PRES   REMARKS
FARMINGTON     SUNNY     78  36  21 E6        30.15S
LOS ALAMOS     SUNNY     75  34  22 NE5       30.31S
SANTA FE       SUNNY     80  33  18 N6        30.23S
ANGEL FIRE     FAIR      69  33  25 E3        30.37F

$$
NMZ402-403-502-505>509-021800-
WESTCENTRAL MOUNTAINS/SOUTHWEST MOUNTAINS

CITY           SKY/WX    TMP DP  RH WIND       PRES   REMARKS
GALLUP         SUNNY     80  38  22 W8        30.24F
SILVER CITY    SUNNY     86  32  14 NW12G22   30.17F

$$
NMZ407-409-411-412-021800-
SOUTHERN DESERTS

CITY           SKY/WX    TMP DP  RH WIND       PRES   REMARKS
LORDSBURG      FAIR      86  37  17 W8        30.09S
DEMING         SUNNY     90  37  15 CALM      30.06F
LAS CRUCES     SUNNY     86  33  15 E5        30.08S
HOLLOMAN AFB   SUNNY     87  38  17 E2        30.03F
ALAMOGORDO     SUNNY     86  39  19 S7        30.06S
T OR C         SUNNY     87  39  18 VRB6      30.10F

$$
NMZ519>523-021800-
CENTRAL VALLEYS/CENTRAL HIGHLANDS

CITY           SKY/WX    TMP DP  RH WIND       PRES   REMARKS
ALBUQUERQUE    MOSUNNY   80  37  21 CALM      30.17S
DOUBLE EAGLE   MOSUNNY   81  36  19 VRB6      30.21S
CLINES CORNERS SUNNY     79  31  17 E3        30.27S
BELEN          FAIR      82  40  22 N5        30.15F
SOCORRO        FAIR      85  41  21 N8        30.12F

$$
NMZ524>526-539-540-021800-
SOUTHCENTRAL MOUNTAINS

CITY           SKY/WX    TMP DP  RH WIND       PRES   REMARKS
RUIDOSO        NOT AVBL

$$
NMZ527>531-021800-
NORTHEAST HIGHLANDS/NORTHEAST PLAINS

CITY           SKY/WX    TMP DP  RH WIND       PRES   REMARKS
LAS VEGAS      SUNNY     79  33  19 VRB5      30.26F
RATON          SUNNY     77  38  24 S6        30.20F
CLAYTON        PTSUNNY   72  62  71 NE12      30.16R

$$
NMZ532>537-021800-
EASTCENTRAL PLAINS

CITY           SKY/WX    TMP DP  RH WIND       PRES   REMARKS
TUCUMCARI      MOSUNNY   82  62  50 NE13      30.07F
CANNON AFB     SUNNY     81  61  50 NE12      30.08S
CLOVIS AIRPORT   N/A     81  61  50 N12G20    30.10S

$$
NMZ028-029-538-021800-
SOUTHEAST PLAINS

CITY           SKY/WX    TMP DP  RH WIND       PRES   REMARKS
ROSWELL        SUNNY     86  45  23 N9        30.01F
CARLSBAD       SUNNY     90  53  28 VRB3      29.97S
HOBBS          SUNNY     88  57  35 S7        30.01S


$$


USA.gov is the U.S. government's official web portal to all federal, state and local government web resources and services.